Regional Weather Roundup
Issued by NWS

Home | Current Version | Previous Version | Text Only | Print | Product List | Glossary On
Versions: 1 2 3 4 5 6 7 8 9 10 11 12 13 14 15 16 17 18 19 20 21 22 23 24 25 26 27 28 29 30 31 32 33 34 35 36 37 38 39 40 41 42 43 44 45 46 47 48 49 50
000
ASUS44 KOUN 251210
RWROK

WEATHER ROUNDUP FOR OKLAHOMA
NATIONAL WEATHER SERVICE NORMAN OK
700 AM CDT SAT APR 25 2015

NOTE: "FAIR" INDICATES FEW OR NO CLOUDS BELOW 12,000 FEET WITH NO
      SIGNIFICANT WEATHER AND/OR OBSTRUCTIONS TO VISIBILITY.

OKZ001>007-009>012-014-015-017-251300-
NORTHWEST OKLAHOMA AND THE PANHANDLE

CITY           SKY/WX    TMP DP  RH WIND       PRES   REMARKS
GAGE           CLEAR     48  44  86 W10       29.65R
6HR MIN TEMP:  47; 6HR MAX TEMP:  56;

GUYMON         CLEAR     51  33  50 W13       29.69R
ENID/WOODRING  PTCLDY    52  48  87 W5        29.58S
$$

OKZ016-021>023-033>039-044-045-251300-
SOUTHWEST OKLAHOMA

CITY           SKY/WX    TMP DP  RH WIND       PRES   REMARKS
LAWTON/REGL    CLEAR     52  42  69 W6        29.65R
6HR MIN TEMP:  49; 6HR MAX TEMP:  60;

LAWTON/FT SILL CLEAR     56  43  61 W5        29.63R
FREDERICK      CLEAR     54  43  66 W8        29.64R
CLINTON        CLEAR     52  40  63 W5        29.66R
HOBART         CLEAR     49  42  77 W10       29.66R
ALTUS AFB      CLEAR     54  43  66 N6        29.65R
$$

OKZ018>020-024>031-251300-
CENTRAL OKLAHOMA

CITY           SKY/WX    TMP DP  RH WIND       PRES   REMARKS
OKLAHOMA CITY  CLEAR     52  43  71 S3        29.62R
6HR MIN TEMP:  50; 6HR MAX TEMP:  63;

OKC/WILEY POST CLEAR     50  45  83 SW7       29.62R
OKC/TINKER AFB CLEAR     55  45  68 SW6       29.61R
STILLWATER     CLEAR     56  49  77 W7        29.58R
GUTHRIE        CLEAR     53  47  79 SW6       29.60R
$$

OKZ008-013-054>072-251300-
NORTHEAST OKLAHOMA

CITY           SKY/WX    TMP DP  RH WIND       PRES   REMARKS
TULSA          CLEAR     62  53  72 SW6       29.55R
6HR MIN TEMP:  61; 6HR MAX TEMP:  63;

TULSA/JONES    CLEAR     58  53  84 CALM      29.57R
PONCA CITY     CLEAR     56  51  84 W8        29.55R
BARTLESVILLE   CLEAR     60  53  77 W6        29.55R
MUSKOGEE       CLEAR     60  57  89 SW13      29.60R
$$

OKZ032-040>043-046>053-073>077-251300-
SOUTH CENTRAL/SOUTHEAST OKLAHOMA

CITY           SKY/WX    TMP DP  RH WIND       PRES   REMARKS
ARDMORE/DWNTWN CLEAR     55  50  82 CALM      29.67R
MCALESTER      PTCLDY    60  57  89 SW9       29.62R
$$



USA.gov is the U.S. government's official web portal to all federal, state and local government web resources and services.